CZ-6A DEB

Satellite information

Favourite Embed

Satellite Type and Status

DEBRISIN ORBIT

Key statistics

Satellite CZ-6A DEB at a glance.

Uptime

1083

Days in orbit

Revolutions

≈ 14.1

Per day

Orbit

SSO

Sun Synchronous Orbit

Inclination

98.8

Latest

Satellite identification and parameters

Extended collection of information and parameters for CZ-6A DEB.

Object identification

Identified? True

Debris? True

Object name: CZ-6A DEB

International designator: 2022-151AR

Object number (NORAD): 54298

Object ID (CCSDS): 54298

Country: PEOPLES REPUBLIC OF CHINA (PRC)

Current information (Y/N): Y

RCS size: SMALL

Orbital parameters

Period: 102.363 minutes

Inclination: 98.8154 deg

SMA: 7248.609 km

Apoapsis: 914.497 km

Periapsis: 826.451 km

RAAN: 289.5446 deg

Eccentricy: 0.00607329

Argument of periapsis: 293.9265 deg

Mean anomaly: 65.5551 deg

Mean motion: 14.06762453 rev/day

Mean motion (dot): 0.00000649 rev/day2

B* drag term: 0.00040980163 1/REarth

Two-line elements (TLE)

Creation date: Oct. 28, 2025, 2:18 a.m.

Reference frame: TEME

Reference center: EARTH

Epoch: Oct. 27, 2025, 9:29 p.m. UTC

TLE line 0: 0 CZ-6A DEB

TLE line 1: 1 54298U 22151AR 25300.89518767 .00000649 00000-0 40980-3 0 9993

TLE line 2: 2 54298 98.8154 289.5446 0060733 293.9265 65.5551 14.06762453151370

Live tracking on map

Real-time ground track for satellite CZ-6A DEB.

In-orbit conjunctions

A list of the most updated potential collisions computed for object CZ-6A DEB.

Target Orbit TCA Probability of collision Miss distance Type
THORAD AGENA D DEB SSO 2024-11-10 02:01:35 0.0001882322 793.0 (m) DEBRIS
METEOR 2-11 DEB LEO 2024-11-07 22:42:37 0.0002291175 476.0 (m) DEBRIS
THORAD AGENA D DEB SSO 2024-07-28 11:19:40 0.002106109 9.0 (m) DEBRIS

Associated space launch

Chinese satellite reported for atmospheric/ocean/environmental/spatial parameter research purposes, details TBD.

CZ-6A DEB was lifted into orbit during the mission ‘Long March 6A | Yunhai 3’, on board a Long March 6A space rocket.

The launch took place on Nov. 11, 2022, 10:52 p.m. from Launch Complex 9A.

For more information about the launch, click the button.

Launch to space Long March 6A | Yunhai 3
Long March 6A | Yunhai 3

Agency: N/A

Status: Launch Successful

Launch date: Nov. 11, 2022, 10:52 p.m. UTC

Rocket: Long March 6A

Launch pad: Launch Complex 9A

Location: Taiyuan Satellite Launch Center, People's Republic of China

...

Latest news about this satellite

There are no fresh news available about this satellite. Check back as we update our databases every day.


Newsletter sign-up

Weekly statistics, charts and insights to help you stay on top of the space industry.